FW2602 Weather Reports


Display with metric or nautical units.
time (UTC)temp
F
wind
direction
speed
MPH
gust
MPH
rain 1hr
in
rain 24hr
in
rain mn
in
humidity
%
barometer
mb
20260508172011 38 284 0.0 4.0 0.02 0.02 0.02 93 1012.1
20260508171517 39 257 0.0 9.0 0.01 0.01 0.01 93 1012.2
20260508171022 39 302 2.0 9.0 0.01 0.01 0.01 93 1012.2
20260508170511 40 321 4.0 8.0 0.01 0.01 0.01 93 1012.1
20260508170021 40 270 2.0 10.0 0.01 0.01 0.01 90 1012.1
20260508165507 40 319 3.0 11.0 0.00 0.00 0.00 85 1012.2
20260508165013 41 274 6.0 11.0 0.00 0.00 0.00 82 1012.0
20260508164523 42 276 7.0 14.0 0.00 0.00 0.00 81 1012.1
20260508164010 42 294 8.0 14.0 0.00 0.00 0.00 82 1012.1
20260508163520 42 250 7.0 13.0 0.00 0.00 0.00 79 1012.1
20260508163018 42 285 5.0 13.0 0.00 0.00 0.00 79 1012.1
20260508162525 43 301 7.0 13.0 0.00 0.00 0.00 79 1012.2
20260508162018 42 271 6.0 15.0 0.00 0.00 0.00 77 1012.2
20260508161522 43 298 8.0 14.0 0.00 0.00 0.00 79 1012.0
20260508161009 42 274 6.0 14.0 0.00 0.00 0.00 78 1012.0
20260508160517 42 297 8.0 13.0 0.00 0.00 0.00 79 1012.1
20260508160022 42 302 5.0 14.0 0.00 0.00 0.00 80 1012.0
20260508155509 42 302 7.0 13.0 0.00 0.00 0.00 78 1012.1
20260508155016 42 283 7.0 13.0 0.00 0.00 0.00 76 1012.1
20260508154524 42 309 8.0 13.0 0.00 0.00 0.00 76 1012.1
20260508154012 42 301 8.0 17.0 0.00 0.00 0.00 74 1012.1
20260508153522 42 279 8.0 16.0 0.00 0.00 0.00 74 1012.1
20260508153008 42 285 10.0 15.0 0.00 0.00 0.00 70 1012.0
20260508152516 43 297 9.0 15.0 0.00 0.00 0.00 68 1011.9
20260508152020 43 274 8.0 15.0 0.00 0.00 0.00 65 1011.7
20260508151511 43 297 8.0 13.0 0.00 0.00 0.00 64 1011.7
20260508151015 43 276 1.0 13.0 0.00 0.00 0.00 60 1011.4
20260508150529 44 292 7.0 13.0 0.00 0.00 0.00 58 1011.4
20260508150018 45 315 1.0 10.0 0.00 0.00 0.00 61 1011.3
20260508145517 45 295 4.0 6.0 0.00 0.00 0.00 61 1011.2
20260508145020 45 300 1.0 6.0 0.00 0.00 0.00 62 1011.2
20260508144544 45 295 4.0 12.0 0.00 0.00 0.00 63 1011.1
20260508144013 45 298 6.0 12.0 0.00 0.00 0.00 63 1011.2
20260508143523 44 300 2.0 8.0 0.00 0.00 0.00 60 1011.1
20260508143022 45 285 4.0 8.0 0.00 0.00 0.00 60 1011.1
20260508142511 45 301 3.0 6.0 0.00 0.00 0.00 63 1011.0
20260508142033 45 289 1.0 7.0 0.00 0.00 0.00 63 1011.0
20260508141512 44 290 1.0 9.0 0.00 0.00 0.00 60 1010.9
20260508141018 45 283 5.0 9.0 0.00 0.00 0.00 62 1010.8
20260508140504 45 290 0.0 5.0 0.00 0.00 0.00 63 1010.8
20260508140023 44 82 0.0 5.0 0.00 0.00 0.00 64 1010.9
20260508135508 43 281 1.0 5.0 0.00 0.00 0.00 63 1011.1
20260508135018 43 273 0.0 6.0 0.00 0.00 0.00 64 1011.1
20260508134505 43 293 4.0 7.0 0.00 0.00 0.00 65 1011.2
20260508134113 43 284 1.0 7.0 0.00 0.00 0.00 66 1011.3
20260508133522 43 281 4.0 7.0 0.00 0.00 0.00 66 1011.2
20260508133019 43 315 2.0 9.0 0.00 0.00 0.00 66 1011.3
20260508132525 43 279 2.0 6.0 0.00 0.00 0.00 65 1011.1
20260508132013 43 307 0.0 3.0 0.00 0.00 0.00 66 1011.1
20260508131525 42 307 0.0 6.0 0.00 0.00 0.00 69 1011.1
20260508131010 42 297 2.0 7.0 0.00 0.00 0.00 70 1011.1
20260508130521 42 276 3.0 7.0 0.00 0.00 0.00 70 1011.1
20260508130014 42 290 2.0 8.0 0.00 0.00 0.00 70 1011.2
20260508125523 41 294 4.0 11.0 0.00 0.00 0.00 71 1011.4
20260508125011 41 290 5.0 10.0 0.00 0.00 0.00 72 1011.4
20260508124519 41 307 4.0 8.0 0.00 0.00 0.00 72 1011.6
20260508124005 41 293 4.0 8.0 0.00 0.00 0.00 73 1011.6
20260508123519 40 295 3.0 8.0 0.00 0.00 0.00 74 1011.6
20260508123017 40 302 4.0 8.0 0.00 0.00 0.00 74 1011.7
20260508122524 40 294 4.0 9.0 0.00 0.00 0.00 74 1011.6
20260508122053 40 290 5.0 9.0 0.00 0.00 0.00 74 1011.6
20260508121545 40 295 4.0 7.0 0.00 0.00 0.00 77 1011.5
20260508121045 39 306 3.0 7.0 0.00 0.00 0.00 77 1011.4
20260508120544 39 255 1.0 6.0 0.00 0.00 0.00 78 1011.3
20260508120043 39 273 3.0 6.0 0.00 0.00 0.00 80 1011.1
20260508115544 38 250 0.0 7.0 0.00 0.00 0.00 81 1011.3
20260508115042 38 287 3.0 6.0 0.00 0.00 0.00 83 1011.6
20260508114542 38 305 3.0 6.0 0.00 0.00 0.00 83 1011.6
20260508114042 38 286 3.0 8.0 0.00 0.00 0.00 84 1011.7
20260508113542 38 297 5.0 8.0 0.00 0.00 0.00 83 1011.7
20260508113058 38 286 3.0 9.0 0.00 0.00 0.00 84 1011.7
20260508112540 38 295 3.0 6.0 0.00 0.00 0.00 84 1011.6
20260508112040 38 284 2.0 8.0 0.00 0.00 0.00 85 1011.5
20260508111544 38 275 2.0 8.0 0.00 0.00 0.00 85 1011.4
20260508111040 37 295 0.0 4.0 0.00 0.00 0.00 85 1011.4
20260508110539 37 294 2.0 4.0 0.00 0.00 0.00 85 1011.6
20260508110049 37 288 1.0 4.0 0.00 0.00 0.00 85 1011.5
20260508105539 37 305 1.0 4.0 0.00 0.00 0.00 86 1011.4
20260508105037 37 309 0.0 4.0 0.00 0.00 0.00 86 1011.4
20260508104539 37 293 1.0 7.0 0.00 0.00 0.00 86 1011.3
20260508104036 37 264 3.0 7.0 0.00 0.00 0.00 86 1011.3
20260508103536 37 287 3.0 7.0 0.00 0.00 0.00 86 1011.3
20260508103035 37 273 3.0 8.0 0.00 0.00 0.00 86 1011.3
20260508102533 37 292 4.0 8.0 0.00 0.00 0.00 86 1011.2
20260508102033 37 240 3.0 8.0 0.00 0.00 0.00 86 1011.1
20260508101533 37 298 4.0 8.0 0.00 0.00 0.00 85 1011.2
20260508101031 37 270 3.0 8.0 0.00 0.00 0.00 84 1011.2
20260508100529 37 298 4.0 9.0 0.00 0.00 0.00 83 1011.2
20260508100030 38 275 6.0 10.0 0.00 0.00 0.00 81 1011.1
20260508095526 38 245 6.0 10.0 0.00 0.00 0.00 79 1011.1
20260508095025 38 311 5.0 9.0 0.00 0.00 0.00 77 1011.0
20260508094525 39 300 6.0 9.0 0.00 0.00 0.00 76 1011.0
20260508094023 39 300 6.0 10.0 0.00 0.00 0.00 75 1010.9
20260508093523 39 277 5.0 10.0 0.00 0.00 0.00 74 1010.9
20260508093027 39 303 5.0 10.0 0.00 0.00 0.00 74 1010.7
20260508092520 39 273 5.0 8.0 0.00 0.00 0.00 73 1010.7
20260508092019 39 298 3.0 8.0 0.00 0.00 0.00 73 1010.7
20260508091520 39 271 4.0 8.0 0.00 0.00 0.00 72 1010.7
20260508091018 39 298 3.0 7.0 0.00 0.00 0.00 72 1010.6
20260508090517 39 299 3.0 8.0 0.00 0.00 0.00 71 1010.6
20260508090024 39 288 5.0 8.0 0.00 0.00 0.00 71 1010.6
20260508085515 39 300 5.0 9.0 0.00 0.00 0.00 70 1010.5
20260508085017 39 272 5.0 14.0 0.00 0.00 0.00 69 1010.5
20260508084514 39 284 5.0 14.0 0.00 0.00 0.00 68 1010.5
20260508084013 39 256 4.0 9.0 0.00 0.00 0.00 67 1010.4
20260508083512 39 295 4.0 9.0 0.00 0.00 0.00 67 1010.4
20260508083012 40 292 4.0 9.0 0.00 0.00 0.00 65 1010.3
20260508082514 40 285 4.0 10.0 0.00 0.00 0.00 65 1010.2
20260508082011 40 283 5.0 10.0 0.00 0.00 0.00 64 1010.2
20260508081512 40 291 4.0 9.0 0.00 0.00 0.00 64 1010.2
20260508081011 40 312 5.0 9.0 0.00 0.00 0.00 64 1010.2
20260508080514 40 302 4.0 11.0 0.00 0.00 0.00 64 1010.2
20260508080011 40 276 5.0 11.0 0.00 0.00 0.00 64 1010.2
20260508075506 40 312 5.0 9.0 0.00 0.00 0.00 65 1010.2
20260508075010 39 276 4.0 8.0 0.00 0.00 0.00 64 1010.0
20260508074515 39 266 4.0 7.0 0.00 0.00 0.00 64 1010.0
20260508074004 39 307 3.0 7.0 0.00 0.00 0.00 65 1010.0
20260508073503 39 292 2.0 5.0 0.00 0.00 0.00 64 1009.9
20260508073001 39 286 2.0 5.0 0.00 0.00 0.00 64 1010.0
20260508072502 39 298 0.0 4.0 0.00 0.00 0.00 64 1009.9
20260508072101 39 226 0.0 3.0 0.00 0.00 0.00 65 1009.9
20260508071605 39 288 0.0 3.0 0.00 0.00 0.00 64 1009.9
20260508071100 38 271 1.0 3.0 0.00 0.00 0.00 65 1009.8
20260508070559 38 266 0.0 3.0 0.00 0.00 0.00 66 1009.8
20260508070058 38 208 0.0 1.0 0.00 0.00 0.00 66 1009.8
20260508065558 38 114 0.0 0.0 0.00 0.00 0.00 66 1009.7
20260508065057 38 114 0.0 1.0 0.00 0.00 0.00 65 1009.7
20260508064555 39 115 0.0 1.0 0.00 0.00 0.00 63 1009.7
20260508064055 39 117 0.0 2.0 0.00 0.00 0.00 62 1009.8
20260508063554 40 274 0.0 5.0 0.00 0.00 0.00 61 1009.8
20260508063053 40 311 2.0 5.0 0.00 0.00 0.00 60 1009.8
20260508062553 40 264 0.0 3.0 0.00 0.00 0.00 62 1009.8
20260508062052 40 273 0.0 4.0 0.00 0.00 0.00 61 1009.7
20260508061552 40 298 0.0 4.0 0.00 0.00 0.00 60 1009.8
20260508061051 40 311 1.0 4.0 0.00 0.00 0.00 60 1010.0
20260508060549 40 264 1.0 3.0 0.00 0.00 0.00 60 1010.1
20260508060047 40 280 0.0 2.0 0.00 0.00 0.00 60 1010.1
20260508055547 40 335 0.0 1.0 0.00 0.00 0.00 60 1010.0
20260508055048 40 253 0.0 2.0 0.00 0.00 0.00 60 1010.0
20260508054547 40 277 0.0 3.0 0.00 0.00 0.00 59 1010.1
20260508054046 40 298 1.0 5.0 0.00 0.00 0.00 59 1010.1
20260508053548 40 297 0.0 5.0 0.00 0.00 0.00 59 1010.2
20260508053110 40 292 1.0 4.0 0.00 0.00 0.00 59 1010.3
20260508052545 40 276 0.0 5.0 0.00 0.00 0.00 59 1010.3
20260508052044 40 302 1.0 5.0 0.00 0.00 0.00 59 1010.3
20260508051545 40 288 1.0 4.0 0.00 0.00 0.00 59 1010.3
20260508051044 40 279 0.0 4.0 0.00 0.00 0.00 59 1010.3
20260508050544 40 294 1.0 5.0 0.00 0.00 0.00 60 1010.3
20260508050043 40 311 0.0 5.0 0.00 0.00 0.00 60 1010.3
20260508045541 39 316 0.0 4.0 0.00 0.00 0.00 61 1010.3
20260508045040 39 359 0.0 3.0 0.00 0.00 0.00 61 1010.3
20260508044540 40 82 0.0 3.0 0.00 0.00 0.00 60 1010.3
20260508044040 40 294 0.0 5.0 0.00 0.00 0.00 58 1010.2
20260508043540 39 295 1.0 5.0 0.00 0.00 0.00 60 1010.1
20260508043037 39 6 0.0 1.0 0.00 0.00 0.00 61 1010.1
20260508042537 39 285 0.0 2.0 0.00 0.00 0.00 59 1010.1
20260508042035 39 299 0.0 2.0 0.00 0.00 0.00 60 1010.1
20260508041556 39 337 0.0 1.0 0.00 0.00 0.00 61 1010.0
20260508041034 39 90 0.0 1.0 0.00 0.00 0.00 62 1010.0
20260508040532 39 90 0.0 1.0 0.00 0.00 0.00 61 1009.9
20260508040035 39 266 0.0 1.0 0.00 0.00 0.00 61 1010.0
20260508035534 39 277 0.0 1.0 0.00 0.00 0.00 60 1010.0
20260508035034 39 277 0.0 1.0 0.00 0.00 0.00 59 1010.0
20260508034534 39 263 0.0 1.0 0.00 0.00 0.00 59 1010.0
20260508034030 39 261 0.0 2.0 0.00 0.00 0.00 60 1010.0
20260508033530 39 262 0.0 2.0 0.00 0.00 0.00 60 1010.0
20260508033032 39 102 0.0 1.0 0.00 0.00 0.00 62 1010.0
20260508032531 39 98 0.0 1.0 0.00 0.00 0.00 63 1010.0
20260508032031 39 97 0.0 1.0 0.00 0.00 0.00 61 1010.0
20260508031535 39 98 0.0 1.0 0.00 0.00 0.00 63 1009.9
20260508031031 39 98 1.0 1.0 0.00 0.00 0.00 61 1009.8
20260508030531 39 98 0.0 1.0 0.00 0.00 0.00 61 1009.9
20260508030034 39 98 1.0 1.0 0.00 0.00 0.00 62 1009.9
20260508025529 39 98 1.0 1.0 0.00 0.00 0.00 61 1010.0
20260508025029 39 98 0.0 2.0 0.00 0.00 0.00 62 1010.0
20260508024531 39 60 0.0 1.0 0.00 0.00 0.00 59 1010.1
20260508024029 40 58 0.0 1.0 0.00 0.00 0.00 61 1010.0
20260508023532 40 96 0.0 1.0 0.00 0.00 0.00 59 1010.0
20260508023032 40 82 0.0 1.0 0.00 0.00 0.00 60 1010.1
20260508022528 40 84 0.0 1.0 0.00 0.00 0.00 59 1010.1
20260508022028 40 73 0.0 1.0 0.00 0.00 0.00 59 1010.2
20260508021529 40 74 0.0 1.0 0.00 0.00 0.00 58 1010.1
20260508021028 40 70 0.0 1.0 0.00 0.00 0.00 57 1010.1
20260508020528 41 71 0.0 1.0 0.00 0.00 0.00 57 1010.1
20260508020036 41 69 0.0 1.0 0.00 0.00 0.00 55 1010.1
20260508015528 42 285 0.0 2.0 0.00 0.00 0.00 54 1010.1
20260508015027 43 317 0.0 4.0 0.00 0.00 0.00 52 1010.1
20260508014527 43 291 0.0 1.0 0.00 0.00 0.00 51 1010.1
20260508014027 43 290 0.0 2.0 0.00 0.00 0.00 51 1010.1
20260508013530 43 299 0.0 4.0 0.00 0.00 0.00 50 1010.0
20260508013013 43 295 0.0 12.0 0.00 0.00 0.00 49 1009.9
20260508012526 44 253 2.0 12.0 0.00 0.00 0.00 48 1009.9
20260508012011 44 283 2.0 6.0 0.00 0.00 0.00 50 1009.9
20260508011521 44 295 3.0 6.0 0.00 0.00 0.00 48 1009.8
20260508011006 44 262 2.0 8.0 0.00 0.00 0.00 48 1009.9
20260508010518 44 283 4.0 10.0 0.00 0.00 0.00 47 1009.9
20260508010022 44 286 2.0 10.0 0.00 0.00 0.00 47 1009.8
20260508005515 44 299 3.0 10.0 0.00 0.01 0.00 48 1009.7
20260508005021 44 281 4.0 10.0 0.00 0.01 0.00 48 1009.7
20260508004510 44 293 4.0 8.0 0.00 0.01 0.00 48 1009.6
20260508004018 44 302 4.0 8.0 0.00 0.01 0.00 48 1009.4
20260508003512 44 301 3.0 7.0 0.00 0.01 0.00 48 1009.4
20260508003013 45 317 2.0 7.0 0.00 0.01 0.00 48 1009.2
20260508002524 45 288 2.0 11.0 0.00 0.01 0.00 47 1009.2
20260508002008 45 284 1.0 4.0 0.00 0.01 0.00 47 1009.2
20260508001516 45 287 1.0 5.0 0.00 0.01 0.00 46 1009.1
20260508001017 46 280 2.0 10.0 0.00 0.01 0.00 45 1009.1
20260508000525 46 280 4.0 10.0 0.00 0.01 0.00 45 1009.1
20260508000013 46 293 4.0 11.0 0.00 0.01 0.00 46 1009.1
20260507235524 47 324 7.0 11.0 0.00 0.01 0.00 45 1009.0
20260507235010 47 288 3.0 11.0 0.00 0.01 0.00 44 1009.1
20260507234517 48 306 5.0 11.0 0.00 0.01 0.00 43 1009.0
20260507234020 48 289 5.0 13.0 0.00 0.01 0.00 43 1009.0
20260507233512 48 294 5.0 13.0 0.00 0.01 0.00 42 1008.9
20260507233031 49 301 3.0 9.0 0.00 0.01 0.00 41 1008.9
20260507232511 49 292 4.0 10.0 0.00 0.01 0.00 42 1009.0
20260507232013 50 295 4.0 10.0 0.00 0.01 0.00 42 1008.8
20260507231528 50 351 1.0 6.0 0.00 0.01 0.00 42 1008.7
20260507231011 50 278 3.0 9.0 0.00 0.01 0.00 42 1008.7
20260507230522 50 296 4.0 9.0 0.00 0.01 0.00 42 1008.8
20260507230006 51 287 3.0 12.0 0.00 0.01 0.00 44 1008.8
20260507225517 51 283 4.0 12.0 0.00 0.01 0.00 45 1008.7
20260507225020 51 280 1.0 11.0 0.00 0.01 0.00 46 1008.6
20260507224525 50 234 3.0 14.0 0.00 0.01 0.00 45 1008.7
20260507224012 50 295 8.0 14.0 0.00 0.01 0.00 44 1008.7
20260507223525 51 295 6.0 14.0 0.00 0.01 0.00 46 1008.6
20260507223010 51 288 4.0 14.0 0.00 0.01 0.00 45 1008.6
20260507222521 51 289 5.0 14.0 0.00 0.01 0.00 46 1008.7
20260507222005 51 296 4.0 9.0 0.00 0.01 0.00 46 1008.6
20260507221521 51 290 4.0 9.0 0.00 0.01 0.00 46 1008.8
20260507221005 51 253 5.0 11.0 0.00 0.01 0.00 45 1008.6
20260507220517 51 269 6.0 15.0 0.00 0.01 0.00 45 1008.8
20260507220100 51 277 6.0 20.0 0.00 0.01 0.00 45 1008.9
20260507215510 52 287 6.0 13.0 0.00 0.02 0.00 44 1008.8
20260507215015 52 294 4.0 13.0 0.00 0.02 0.00 48 1008.8
20260507214527 51 240 7.0 13.0 0.00 0.02 0.00 45 1008.8
20260507214013 51 294 5.0 13.0 0.00 0.02 0.00 45 1008.9
20260507213525 51 276 6.0 15.0 0.00 0.02 0.00 47 1008.8
20260507213016 51 293 7.0 15.0 0.00 0.02 0.00 47 1008.8
20260507212522 52 294 9.0 15.0 0.00 0.02 0.00 49 1008.8
20260507212010 52 273 4.0 16.0 0.00 0.02 0.00 48 1008.8
20260507211523 52 298 2.0 16.0 0.00 0.02 0.00 48 1008.8
20260507211008 50 314 2.0 18.0 0.00 0.02 0.00 50 1008.9
20260507210520 51 301 6.0 21.0 0.00 0.02 0.00 48 1008.7
20260507210007 51 280 10.0 21.0 0.00 0.02 0.00 46 1008.8
20260507205517 52 295 7.0 14.0 0.00 0.04 0.00 45 1008.8
20260507205021 52 252 6.0 14.0 0.00 0.04 0.00 47 1008.8
20260507204519 51 233 5.0 14.0 0.00 0.04 0.00 49 1008.8
20260507204018 50 278 6.0 12.0 0.00 0.04 0.00 49 1008.7
20260507203509 50 285 6.0 16.0 0.00 0.04 0.00 50 1008.7
20260507203014 51 290 9.0 19.0 0.00 0.04 0.00 48 1008.7
20260507202523 51 269 8.0 19.0 0.00 0.04 0.00 47 1008.6
20260507202011 52 289 10.0 15.0 0.00 0.04 0.00 47 1008.6
20260507201524 52 312 2.0 19.0 0.00 0.04 0.00 47 1008.7
20260507201010 51 281 11.0 19.0 0.00 0.04 0.00 46 1008.7
20260507200521 51 82 3.0 16.0 0.00 0.04 0.00 49 1008.7
20260507200010 51 276 4.0 10.0 0.00 0.04 0.00 49 1008.7
20260507195519 50 288 2.0 14.0 0.00 0.05 0.00 50 1008.9
20260507195021 50 15 3.0 14.0 0.00 0.05 0.00 50 1008.9
20260507194512 50 276 4.0 16.0 0.00 0.05 0.00 49 1008.9
20260507193509 50 312 9.0 18.0 0.00 0.05 0.00 49 1009.0
20260507193023 50 302 8.0 18.0 0.00 0.05 0.00 50 1009.1
20260507192508 50 322 4.0 12.0 0.00 0.05 0.00 48 1009.1
20260507192014 50 280 4.0 16.0 0.00 0.05 0.00 50 1009.1
20260507191512 51 317 4.0 16.0 0.00 0.05 0.00 53 1009.1
20260507191016 50 293 11.0 16.0 0.00 0.05 0.00 54 1009.0
20260507190527 49 305 10.0 16.0 0.00 0.05 0.00 53 1009.3
20260507190012 49 301 6.0 15.0 0.00 0.05 0.00 53 1009.4
20260507185524 49 287 8.0 18.0 0.00 0.05 0.00 52 1009.4
20260507185012 49 297 11.0 22.0 0.00 0.05 0.00 54 1009.3
20260507184530 50 294 10.0 22.0 0.00 0.05 0.00 54 1009.3
20260507184012 50 288 11.0 21.0 0.00 0.05 0.00 54 1009.4
20260507183521 50 291 14.0 21.0 0.00 0.05 0.00 57 1009.5
20260507183006 50 307 10.0 17.0 0.00 0.05 0.00 58 1009.7
20260507182518 49 289 2.0 11.0 0.00 0.05 0.00 57 1009.7
20260507182018 49 301 3.0 11.0 0.00 0.05 0.00 59 1009.7
20260507181526 49 272 3.0 8.0 0.00 0.05 0.00 60 1009.9
20260507181016 50 289 3.0 12.0 0.00 0.05 0.00 60 1009.7
20260507180526 49 271 6.0 17.0 0.00 0.05 0.00 58 1009.8
20260507180026 49 293 9.0 17.0 0.00 0.05 0.00 56 1009.8
20260507175528 49 318 7.0 16.0 0.00 0.09 0.00 59 1009.9
20260507175012 48 285 7.0 15.0 0.00 0.09 0.00 60 1009.8
20260507174523 48 295 6.0 15.0 0.00 0.09 0.00 62 1009.8
20260507174008 47 302 4.0 10.0 0.00 0.09 0.00 60 1009.8
20260507173516 48 276 1.0 11.0 0.00 0.09 0.00 60 1009.9
20260507173004 47 328 5.0 13.0 0.00 0.09 0.00 58 1009.9
20260507172516 48 293 5.0 10.0 0.00 0.09 0.00 58 1010.0